Location: Paris
(48.6709°N, 2.3750°E)
Time: 12:44:11
(UTC+02:00)

NOAA 18 - Pass Details

Date: 05 July 2022
Orbit: 839 x 860 km, 98.9° (Epoch: 10 August)

Event Time Altitude Azimuth Distance (km) Brightness Sun altitude
Exits shadow 00:02:06 12° 193° (SSW) 2,342 7.1 -14.2°
Maximum altitude 00:06:56 42° 262° (W) 1,207 6.1 -14.5°
Drops below altitude 10° 00:12:11 10° 333° (NNW) 2,506 9.1 -14.9°
Sets 00:14:43 0° 340° (NNW) 3,449 10.3 -15.1°
